Wind_Speed
96 96 95 94 94 93 91 90 89 90 92 92 91 90 89 87 84 82 80 77 73 69 67 66 65 65 65 63 59 59 57 50 45 45 45 43 43 44 44 45 46 47 44 39 41 45 44 44 43 42 44 45 45 44 43 42 42 42 42 42 42 41 41 42 42 43 43 44 45 45 46 47 47 47 48 49 51 52 54 55 56 57 57 57 57 56
97 95 96 97 97 97 95 93 92 92 93 94 93 92 91 88 86 85 83 80 76 71 70 70 68 66 65 64 62 60 59 55 50 48 47 46 45 46 46 45 44 44 44 44 46 48 48 48 47 46 47 48 47 45 44 44 44 43 43 44 45 44 43 43 45 46 46 46 47 47 48 48 50 50 50 51 52 53 54 56 57 58 59 58 57 58
97 96 99 101 100 100 98 96 96 97 95 94 92 92 91 89 87 86 84 82 78 73 72 73 72 70 67 64 63 61 60 59 57 54 53 52 51 52 52 51 48 45 47 50 51 52 52 51 49 49 49 48 46 45 45 45 46 46 45 45 47 47 45 44 46 48 48 49 49 49 49 49 50 51 51 52 53 54 56 57 58 59 59 59 59 60
99 100 103 104 103 101 100 99 99 100 98 95 92 91 90 90 89 87 85 84 80 76 73 73 74 75 73 67 63 62 62 63 62 58 56 54 52 54 55 54 52 49 49 51 53 55 55 52 51 51 50 48 47 47 48 48 47 47 47 47 48 49 48 48 49 50 51 52 52 52 51 52 52 53 54 55 55 57 58 58 59 59 60 61 62 64
103 104 104 103 103 102 101 101 102 102 100 97 93 91 90 90 90 89 88 86 84 80 76 75 74 75 75 72 68 66 65 65 65 62 60 57 54 55 54 53 53 53 52 52 53 55 56 55 55 54 53 53 53 53 53 51 49 49 50 50 51 51 51 52 53 54 54 55 55 56 56 56 56 57 57 57 58 58 59 59 60 60 62 64 65 66
105 106 103 102 103 103 102 102 104 104 102 99 95 92 91 91 91 91 90 89 87 84 81 79 76 74 75 74 72 71 69 69 69 66 64 62 61 60 59 59 59 57 56 56 55 55 56 58 59 59 59 59 58 58 56 55 53 54 54 54 54 54 54 55 57 58 58 59 59 59 59 59 59 59 59 59 60 60 60 61 61 63 65 67 68 68
105 105 103 102 102 103 103 103 105 105 103 101 97 95 94 93 93 93 92 90 89 86 85 83 79 76 77 76 74 73 71 71 72 70 67 67 66 65 64 66 66 64 62 62 61 59 58 59 60 62 62 62 61 60 58 57 57 57 57 58 58 58 58 59 60 62 63 63 63 62 62 61 61 61 61 61 61 61 62 63 64 66 67 68 69 70
104 105 103 102 102 103 104 104 106 106 104 101 99 97 96 95 95 95 94 93 91 89 87 86 82 79 79 78 76 75 73 72 73 72 72 73 72 70 68 68 68 67 66 66 65 65 63 62 62 63 63 63 62 61 60 60 60 60 60 61 61 61 62 63 64 65 66 66 65 65 64 64 63 63 63 63 63 63 63 65 66 67 68 69 71 73
105 106 104 104 103 104 105 106 107 107 104 102 100 99 97 96 96 96 96 95 93 91 88 86 84 81 79 80 78 76 74 72 72 72 73 75 76 76 74 73 71 70 69 69 69 68 67 67 67 67 67 65 64 63 63 64 64 64 65 65 64 64 65 67 68 68 68 67 67 67 67 66 65 64 64 65 65 65 66 67 68 69 70 71 73 74
107 106 106 105 103 104 106 108 109 108 106 104 102 100 98 97 97 97 97 95 94 92 89 87 86 83 80 81 81 77 75 74 73 73 74 74 76 77 77 77 75 73 71 71 71 71 71 70 70 70 69 69 68 68 68 68 68 68 68 67 66 66 68 70 71 70 69 67 68 69 69 68 67 67 67 68 68 68 69 70 71 72 73 74 75 76
107 106 105 105 103 104 107 109 110 109 108 106 104 101 99 97 97 97 96 96 95 92 89 88 87 85 81 81 82 79 76 76 76 76 76 77 77 77 78 77 77 76 75 74 74 74 74 73 73 73 73 73 72 71 71 71 71 70 70 69 69 70 72 73 73 71 69 69 70 71 71 70 70 70 71 72 72 72 73 74 75 76 77 77 78 79
107 105 103 103 104 105 108 109 111 111 110 108 106 104 101 99 98 97 97 97 95 91 89 89 88 86 82 80 82 81 77 76 77 78 79 80 81 80 80 79 79 79 78 78 77 77 77 77 76 75 76 76 75 74 73 73 73 73 73 72 73 74 75 75 73 72 71 72 73 73 73 73 73 73 74 75 76 77 78 79 79 80 80 81 82 83
108 106 101 103 105 107 108 110 111 111 111 109 108 105 104 102 100 99 98 97 95 91 90 90 89 86 81 79 82 83 81 79 79 79 79 81 82 83 83 82 81 80 79 78 77 78 78 77 77 76 76 77 77 76 75 75 75 75 75 75 76 76 76 74 74 74 76 76 75 75 75 74 75 75 76 77 79 81 82 82 82 83 84 85 86 87
109 108 102 101 104 107 109 110 111 112 111 111 109 108 106 105 103 101 99 98 95 93 91 91 90 86 81 79 81 84 84 83 82 81 81 82 83 83 83 83 82 81 79 78 77 77 77 77 77 77 77 78 78 77 77 76 76 76 77 77 77 76 75 75 77 78 79 78 77 77 77 76 76 77 78 80 81 83 84 85 85 86 87 88 89 90
109 110 104 100 103 107 109 111 113 114 114 113 112 110 108 106 105 103 102 99 97 95 94 94 92 87 81 79 81 84 86 85 83 83 82 83 83 83 83 82 81 81 80 78 77 77 77 77 77 78 78 78 78 78 78 78 77 77 78 78 78 78 78 79 81 81 81 80 80 79 79 78 78 79 81 83 84 84 85 87 88 89 90 92 93 93
107 111 107 103 103 107 110 113 115 116 116 115 114 112 109 107 107 106 104 102 100 99 98 96 92 87 82 81 81 82 84 85 83 83 82 82 82 83 83 83 83 82 81 80 79 78 78 78 78 79 79 79 80 80 80 80 80 80 80 81 81 82 83 83 84 83 82 82 82 81 80 80 81 83 85 86 86 87 88 89 91 93 94 96 96 97
106 111 110 105 103 104 108 111 114 115 116 116 114 112 110 109 109 108 106 104 103 102 99 95 91 87 85 84 82 81 82 84 84 84 83 82 82 83 84 85 85 84 84 83 81 80 80 80 80 81 81 81 82 82 83 83 84 84 85 85 85 85 86 86 85 85 84 84 83 83 82 83 85 88 89 89 89 90 91 93 94 96 98 99 99 99
106 112 113 109 106 104 106 109 111 113 114 114 114 113 112 112 111 108 107 106 104 102 99 95 92 90 88 87 84 83 83 85 86 86 86 85 85 86 86 86 85 85 84 84 83 83 83 83 83 84 84 84 85 85 86 87 87 88 89 89 89 88 87 87 87 86 85 85 85 85 85 86 89 91 91 91 91 93 95 97 98 100 101 102 102 102
105 113 115 112 109 106 106 107 109 111 113 113 113 114 114 113 111 110 108 107 105 103 100 97 95 93 90 89 88 87 87 88 89 89 89 89 89 88 88 88 87 87 87 86 86 86 85 86 86 87 87 87 88 88 88 88 89 90 91 92 91 90 89 89 89 88 87 86 86 87 88 91 93 93 93 93 95 97 99 100 102 103 104 104 104 104
103 112 115 113 111 108 106 106 106 108 110 111 112 113 113 113 112 111 110 109 107 106 103 101 98 95 92 91 91 91 91 91 92 92 92 92 92 92 91 91 91 91 90 90 89 89 89 89 89 89 89 89 89 90 90 90 91 92 92 93 93 92 93 93 91 89 88 89 89 91 93 94 95 95 95 97 99 101 103 104 105 105 106 106 106 106
101 110 114 114 113 110 107 104 105 106 108 109 110 110 111 111 112 112 111 110 109 108 105 103 101 97 94 94 94 94 93 94 95 95 94 94 95 95 95 95 95 94 94 93 93 92 92 92 92 92 91 90 90 90 91 91 92 93 93 94 95 96 97 95 93 92 92 92 94 95 96 97 97 98 99 101 103 105 106 107 108 108 108 108 108 108
98 108 113 114 113 111 109 107 107 108 108 108 109 108 109 110 111 111 111 110 109 108 107 106 102 98 95 96 96 96 96 97 98 98 97 97 97 97 98 98 97 97 96 96 96 96 95 95 95 94 93 92 91 91 92 93 94 95 96 97 98 98 97 96 95 95 96 97 98 99 99 100 101 102 103 105 106 108 109 110 110 110 111 111 110 110
96 105 113 114 113 113 113 111 109 108 108 109 108 107 107 108 109 109 109 108 109 108 107 106 102 97 96 97 97 97 98 99 100 100 100 100 100 100 101 101 101 100 100 100 99 99 98 97 97 97 96 96 96 96 96 97 98 99 100 101 100 100 99 98 99 99 100 101 102 102 103 104 105 106 107 108 109 111 111 112 112 112 113 113 113 112
95 101 110 115 115 115 116 114 111 109 108 107 107 106 107 107 107 108 108 109 109 107 106 105 101 95 95 97 98 98 100 100 100 101 101 102 102 102 103 103 103 103 103 103 102 102 101 100 100 99 99 99 100 100 101 101 102 103 103 103 103 102 103 103 103 103 104 105 105 106 107 108 109 110 111 111 112 113 113 113 114 114 114 114 114 114
95 98 105 112 116 116 116 114 111 108 106 105 105 106 106 106 106 107 108 109 109 107 107 105 100 94 95 97 98 100 102 102 102 102 102 103 104 104 105 105 105 105 105 105 104 104 103 103 102 102 102 102 102 103 103 104 105 105 105 106 106 106 106 106 107 107 107 108 109 110 111 112 112 112 113 113 113 114 114 115 115 115 116 115 115 114
98 100 103 110 116 116 114 111 109 108 107 106 105 106 107 108 108 108 109 110 108 107 107 105 100 97 98 97 98 100 102 103 104 104 104 104 105 106 106 106 106 106 106 105 105 105 105 104 104 104 104 105 105 106 106 106 107 107 107 108 108 109 109 109 110 110 111 112 112 113 113 113 114 114 114 115 115 115 116 116 116 116 116 115 115 115
101 102 102 105 111 114 112 110 110 112 112 110 108 108 109 111 111 111 110 108 105 106 106 103 100 99 100 100 100 101 103 103 104 105 105 106 107 108 108 107 106 106 106 107 107 107 107 106 106 106 107 107 108 108 109 109 109 109 110 110 111 111 111 112 112 113 113 114 114 114 114 114 115 115 115 116 116 116 117 117 117 116 116 116 115 115
100 99 99 99 103 108 110 110 109 111 112 110 110 110 109 109 110 109 106 102 102 103 102 100 100 100 100 101 103 104 106 106 106 106 106 107 107 107 108 108 108 108 109 109 109 109 109 109 109 109 109 110 110 111 111 111 111 111 111 112 112 113 113 114 114 114 114 114 115 115 115 116 116 116 116 117 117 117 117 117 117 116 116 116 116 116
97 95 94 96 98 103 107 109 109 110 111 111 111 110 110 108 106 104 102 101 102 102 99 98 100 100 99 101 102 104 107 108 109 109 109 108 108 108 108 109 110 111 111 111 111 111 111 110 110 110 111 111 111 112 112 112 112 112 112 113 113 114 114 115 115 115 115 115 115 116 116 116 117 117 117 117 117 117 117 116 116 116 116 117 117 118
94 92 92 94 96 100 104 108 109 110 110 111 112 111 110 108 104 102 102 104 105 103 99 97 98 98 97 98 100 103 106 108 109 110 110 110 110 110 111 111 112 113 113 113 113 112 112 112 111 112 112 113 113 113 112 112 112 112 113 114 114 115 115 115 115 115 115 115 115 116 116 116 117 117 117 117 117 117 116 116 117 117 118 118 119 120
90 89 89 91 95 97 100 104 108 109 110 111 111 110 108 105 104 103 103 105 106 103 100 99 99 96 95 95 96 101 106 108 110 111 111 111 112 112 113 113 114 114 114 114 114 114 114 114 114 114 114 114 114 114 114 115 115 116 116 117 117 117 116 116 115 115 115 115 116 117 117 118 118 118 117 117 118 118 118 119 119 120 121 122 122 123
88 87 88 90 92 93 95 99 103 107 111 112 110 107 104 104 104 104 104 105 104 103 103 103 100 95 94 94 95 99 104 107 109 110 111 112 113 114 115 116 116 115 115 115 115 116 117 117 117 117 117 117 118 118 119 119 119 120 120 120 120 120 119 119 119 119 119 119 120 120 120 120 120 120 120 121 121 122 123 123 123 124 125 125 125 126
90 87 86 87 87 88 91 95 99 105 111 112 107 102 102 104 106 107 106 105 105 104 104 103 100 98 96 95 95 96 99 102 106 109 111 113 114 115 116 117 117 117 117 117 118 119 120 120 120 120 120 120 121 121 121 121 121 121 121 122 121 121 121 121 122 122 122 122 123 123 123 123 123 124 124 124 125 125 125 126 126 126 127 127 127 127
90 86 84 85 86 87 91 95 100 106 107 104 100 99 103 107 108 108 108 107 107 107 104 102 100 99 99 98 97 98 98 101 105 108 110 111 112 114 115 116 117 117 118 118 119 120 121 121 121 121 121 121 121 121 121 121 121 121 121 122 122 122 122 122 123 123 123 124 124 124 125 125 125 126 126 126 126 126 126 127 127 127 127 127 128 128
87 85 83 83 84 86 89 94 99 100 95 91 93 99 106 110 109 109 108 109 110 109 106 103 101 101 102 102 102 102 102 103 106 107 107 107 107 109 110 112 113 115 116 117 117 118 118 119 120 120 120 120 120 120 120 120 120 121 121 122 122 122 123 123 123 124 124 125 125 125 126 126 126 126 126 126 127 127 127 127 128 128 128 129 129 130
82 82 81 82 83 83 85 88 91 88 85 86 91 97 103 106 107 108 109 109 111 111 109 106 104 104 106 106 106 106 106 107 107 107 106 105 105 106 107 108 110 112 113 114 114 115 115 116 117 118 118 119 119 120 120 120 121 121 122 122 122 123 123 123 124 124 125 125 125 126 126 126 126 126 126 126 127 127 128 128 129 129 130 130 130 130
81 80 80 81 82 82 83 84 84 84 83 84 86 89 93 96 100 106 110 110 110 112 111 109 107 107 108 109 110 111 112 112 110 107 108 109 110 109 108 107 108 109 109 110 111 111 112 113 114 115 116 117 117 118 118 119 119 120 120 120 121 121 122 122 122 123 123 124 124 124 125 125 125 125 126 126 127 128 128 129 129 130 130 129 129 129
83 82 81 81 81 81 81 81 82 81 77 74 76 82 88 92 96 103 108 107 106 108 110 110 109 110 112 114 115 116 117 115 111 108 111 116 116 114 112 110 109 108 108 108 108 108 109 110 111 112 113 114 115 116 116 117 117 117 117 118 118 119 119 120 121 121 122 123 124 124 125 125 125 126 126 127 128 128 129 129 129 129 129 128 128 128
85 85 84 83 82 81 80 79 78 75 70 68 71 79 86 89 93 99 103 100 97 100 105 108 110 112 115 119 121 122 121 117 113 112 116 119 120 118 116 115 114 114 113 112 111 111 110 110 110 110 111 112 113 114 115 116 116 116 116 117 117 118 119 120 121 122 123 124 125 125 126 126 126 126 127 127 127 128 128 128 128 128 128 128 128 128
86 85 85 85 82 80 80 80 78 74 69 68 71 76 82 86 91 96 97 91 87 91 99 108 112 113 115 118 120 122 122 119 117 117 118 119 120 120 120 119 119 119 119 119 118 118 117 116 115 114 114 114 114 115 115 115 116 116 116 117 118 118 119 120 121 123 124 124 125 125 125 126 126 126 126 126 127 127 127 127 127 127 127 128 128 128
87 87 87 85 83 82 81 80 78 74 70 70 72 75 79 83 87 90 88 85 87 90 96 105 109 109 110 112 114 115 116 117 117 117 118 119 120 122 123 122 122 121 121 122 122 122 122 122 122 121 121 121 120 120 119 119 118 118 118 119 119 119 120 121 122 123 124 124 124 125 125 125 125 126 126 126 126 126 126 126 127 127 127 127 127 128
87 88 87 85 84 83 81 81 80 75 70 71 72 74 77 79 80 81 82 87 92 93 93 97 100 100 103 106 108 109 110 111 112 112 114 116 118 120 123 124 124 124 123 124 124 124 124 124 124 124 124 124 124 123 123 122 121 121 121 121 121 122 122 123 123 123 123 123 124 124 124 125 125 125 125 125 126 126 126 126 126 127 127 127 128 128
87 89 88 86 85 84 84 84 80 71 65 67 72 75 77 77 78 81 85 89 91 90 90 92 96 97 97 99 102 104 105 106 107 106 107 109 111 114 117 119 121 121 121 122 122 123 124 124 124 124 123 123 123 123 123 122 122 122 122 121 121 122 122 122 122 122 122 122 122 122 122 122 122 123 123 124 124 124 124 125 125 126 126 127 127 127
89 89 86 83 83 85 85 82 76 68 65 66 71 77 80 80 81 84 85 84 85 86 87 90 93 95 94 93 94 96 97 99 100 101 102 102 103 105 108 110 112 114 114 115 115 117 118 119 120 120 120 121 121 121 121 121 120 120 119 119 119 119 119 119 119 119 119 118 118 118 118 119 119 119 120 120 121 121 121 122 123 124 124 125 125 125
87 84 83 82 82 84 83 79 75 72 71 70 71 76 80 80 81 82 82 81 82 83 84 86 89 91 91 90 89 90 91 93 94 96 97 98 98 99 101 103 105 107 107 108 108 108 109 109 111 112 112 113 113 113 114 114 114 114 114 114 115 115 114 114 114 114 114 114 115 115 115 116 116 117 117 117 118 118 119 119 120 121 122 122 122 122
83 83 85 86 86 86 83 78 75 74 73 72 73 76 79 80 80 81 81 81 81 81 82 83 84 86 88 88 87 87 88 89 90 90 91 92 92 93 94 96 98 99 100 101 101 101 101 101 101 102 102 103 103 104 105 106 106 107 107 108 108 108 109 109 109 110 111 111 112 112 113 113 114 114 114 115 115 116 116 117 118 118 119 120 120 121
81 82 84 85 85 84 78 72 71 72 72 73 75 77 79 81 81 80 81 81 81 81 81 81 81 83 84 84 84 84 84 85 86 86 87 87 88 88 89 90 91 92 94 95 95 95 95 95 95 95 96 97 98 99 99 100 100 101 101 101 102 102 103 104 105 106 107 108 109 110 110 111 111 112 112 113 113 114 114 115 116 117 117 118 119 120
78 80 82 81 80 78 72 67 69 71 72 73 75 77 79 82 82 81 82 82 82 82 81 81 81 82 82 82 82 82 82 82 82 83 83 83 83 83 83 83 84 85 87 89 90 91 92 92 92 93 93 94 94 95 96 96 97 97 97 98 98 99 100 101 102 103 104 105 106 107 108 108 109 110 110 111 112 112 113 114 115 116 117 117 118 119
78 79 79 78 76 74 70 67 69 71 71 72 74 76 79 82 83 83 83 83 84 84 83 83 83 83 83 82 82 81 81 81 80 80 79 79 79 79 80 80 81 82 83 84 86 88 89 90 91 91 91 91 92 92 93 93 93 94 94 95 96 97 98 99 100 101 102 103 104 105 106 107 107 108 109 110 111 112 113 114 115 115 116 117 117 118
79 79 78 78 78 76 71 69 70 72 73 73 75 78 80 82 82 82 81 81 82 83 83 83 83 83 83 83 82 82 82 81 80 80 80 80 80 80 80 81 81 82 83 85 86 87 87 88 89 89 89 90 90 90 90 91 91 91 92 93 93 94 95 96 98 99 100 101 102 103 104 105 106 107 108 109 110 111 112 112 113 114 115 115 116 117
81 80 80 81 82 78 75 75 78 78 78 77 78 79 79 79 78 78 78 78 78 79 80 80 80 80 80 81 81 81 81 81 80 80 80 82 82 83 83 84 84 85 85 86 87 88 89 89 89 89 89 89 90 91 91 92 92 92 93 93 94 94 95 96 97 98 98 100 101 102 103 104 105 106 107 108 108 109 110 111 112 112 113 114 114 115
Wind_Direction
216 218 219 220 221 222 224 225 227 229 230 230 231 232 233 233 232 232 232 232 231 229 228 228 230 230 231 232 230 227 227 228 232 241 245 243 243 245 249 254 258 260 260 260 262 263 264 265 266 269 273 277 280 279 280 282 285 287 288 289 291 292 292 294 295 297 299 300 299 298 298 299 300 301 303 304 304 304 305 306 307 308 309 310 311 311
215 217 219 220 221 222 223 225 226 227 229 230 231 232 233 233 233 233 233 233 233 230 229 229 230 231 231 231 232 229 229 229 229 233 236 238 239 240 244 250 255 257 256 254 255 257 259 262 266 270 274 276 276 275 277 279 283 285 286 287 288 288 290 294 295 296 298 300 300 298 298 298 298 299 301 301 302 303 303 304 305 306 307 308 309 309
214 216 218 219 220 222 223 224 226 228 229 230 231 232 234 234 233 234 234 234 234 232 231 231 231 233 232 231 232 231 231 232 231 231 234 237 239 240 242 245 248 253 256 257 257 257 260 263 266 271 273 273 272 273 274 277 281 284 285 285 286 287 288 292 295 294 295 298 299 298 298 297 297 297 299 299 300 301 301 302 303 305 305 306 307 308
214 215 217 219 220 221 223 224 226 229 230 230 231 233 234 235 234 234 234 234 234 232 231 232 232 234 234 233 233 232 233 233 233 234 236 239 242 243 245 247 248 251 255 260 261 261 262 263 266 269 270 269 269 271 272 275 279 282 283 283 284 286 288 291 294 294 294 294 296 297 296 296 296 296 297 298 299 300 300 301 302 303 304 305 305 307
214 215 217 218 220 222 223 224 226 229 230 230 231 232 233 235 235 235 234 234 234 232 231 232 232 234 235 234 234 233 234 235 235 236 239 240 241 242 244 247 248 249 252 258 261 261 261 261 262 265 266 266 267 269 271 274 277 279 280 281 284 287 288 290 292 293 293 293 293 294 294 295 295 296 297 298 299 299 299 300 301 302 303 303 304 305
214 216 216 218 220 221 223 224 226 228 230 230 230 230 232 234 235 235 235 235 235 234 233 233 233 234 237 236 234 234 234 236 238 238 240 242 242 243 246 248 249 248 249 252 255 257 259 258 259 261 263 265 266 268 271 274 276 277 279 282 284 285 287 289 291 292 292 292 292 293 293 294 294 295 296 298 298 298 299 300 300 301 302 303 304 305
214 216 216 217 219 221 222 224 226 228 229 230 230 229 230 232 234 235 235 235 235 234 234 234 233 234 237 238 237 236 236 237 240 240 241 243 244 246 248 251 252 251 249 249 251 254 257 258 260 262 264 266 267 269 271 273 275 277 279 282 283 283 285 288 291 292 291 291 292 292 293 293 293 294 296 297 297 298 298 299 300 300 301 302 303 304
213 215 216 217 218 220 221 223 225 227 228 229 230 230 229 230 232 233 235 235 235 235 234 235 235 235 237 240 239 240 239 239 241 242 243 244 245 247 249 251 252 252 251 251 251 253 256 259 261 263 265 267 268 269 271 272 274 276 279 281 282 282 283 286 290 291 291 290 291 292 292 292 292 293 295 296 296 296 297 298 299 299 300 301 302 303
212 215 215 216 217 219 220 222 224 226 227 228 229 230 230 230 231 232 234 235 235 235 235 236 237 236 238 240 241 241 241 241 242 244 244 245 246 248 249 251 253 254 253 252 253 254 257 259 262 264 265 266 268 270 272 273 275 276 278 280 282 281 282 285 288 290 289 289 290 291 291 291 292 293 294 294 294 295 296 297 297 298 299 300 301 302
211 214 216 216 217 218 220 222 223 225 226 227 228 229 229 229 230 232 233 235 235 235 236 236 237 237 238 240 242 242 242 242 243 244 246 247 248 248 250 251 253 255 256 255 255 256 258 261 263 264 264 265 268 270 272 274 275 276 278 280 281 281 283 285 287 288 288 288 289 290 290 290 290 292 293 293 293 294 295 295 296 297 298 299 300 301
211 213 216 216 217 218 220 222 223 225 226 227 227 228 229 229 230 231 233 235 235 235 236 237 238 238 237 240 243 243 242 242 242 244 246 248 248 249 249 250 252 254 257 258 258 259 260 262 263 263 264 266 268 270 272 274 276 277 279 280 281 282 283 285 286 287 286 287 289 289 289 289 289 290 291 292 292 293 294 295 296 296 297 299 300 301
211 212 215 216 217 218 220 222 223 225 226 227 228 228 229 229 230 231 233 235 237 236 236 237 238 238 237 239 243 244 243 242 242 242 244 246 248 249 250 251 252 254 257 258 259 260 261 262 263 264 265 266 268 270 272 274 276 278 279 279 280 282 284 285 285 285 286 287 288 288 288 288 288 289 290 291 291 292 293 294 295 295 297 298 299 300
211 211 213 215 217 219 220 222 224 225 226 227 228 228 229 229 230 231 233 235 237 237 237 238 238 238 237 238 242 244 244 243 243 243 244 246 248 250 251 252 253 255 256 258 259 260 261 263 264 265 266 267 268 270 272 274 276 277 278 278 279 281 282 283 284 284 286 287 287 287 287 286 287 287 288 290 291 291 292 292 293 294 296 298 299 300
211 211 212 214 217 219 220 222 224 225 226 227 228 228 229 229 230 231 233 235 237 237 238 238 239 239 237 236 239 243 244 244 245 246 247 247 248 250 252 253 254 255 256 257 258 260 262 263 264 265 266 268 269 271 273 275 276 276 277 277 278 279 280 281 283 285 285 285 285 286 286 285 285 286 287 289 290 290 290 291 292 293 295 297 298 300
210 211 212 213 216 218 220 222 223 225 226 227 228 228 229 229 230 230 232 233 235 236 236 238 239 240 238 236 237 241 244 245 246 247 248 249 250 251 252 253 254 255 256 257 259 260 262 264 265 266 267 268 269 271 273 274 275 275 275 276 277 278 280 281 283 284 284 284 285 285 284 284 284 285 287 288 288 288 289 290 291 293 294 296 298 300
211 211 212 213 215 217 219 221 223 225 226 228 229 229 230 231 231 231 231 232 233 234 236 238 240 240 239 238 237 239 243 246 247 248 249 250 251 252 252 253 254 255 256 258 259 261 262 264 264 265 266 267 269 270 272 273 273 274 274 275 276 278 280 281 283 284 284 284 284 284 283 283 283 285 287 288 287 288 288 289 291 293 295 297 298 300
212 211 213 214 215 217 219 221 223 225 227 228 230 230 231 231 232 232 232 232 233 234 236 237 239 239 239 239 239 238 241 245 247 248 249 249 251 252 252 253 254 256 257 258 259 260 262 262 263 263 264 265 267 269 270 272 273 274 274 275 276 277 279 281 282 283 283 283 283 283 283 283 284 286 287 287 287 287 288 290 291 293 295 297 299 300
212 212 213 214 214 216 218 220 222 225 227 228 230 231 232 232 233 233 233 234 234 235 236 236 237 237 238 239 239 239 240 243 245 247 248 249 250 251 252 254 255 256 257 258 259 260 261 261 262 263 263 265 266 268 270 271 272 273 274 275 276 277 278 280 281 281 282 282 282 282 282 283 285 286 286 286 286 287 288 290 292 294 296 298 299 300
213 212 213 214 215 216 218 220 222 224 226 228 229 231 232 233 233 234 234 235 235 236 236 236 236 236 236 238 239 239 240 242 244 246 247 249 250 251 252 253 255 256 257 258 259 260 261 261 261 262 263 264 266 267 269 270 271 272 273 274 274 276 278 279 280 280 280 280 281 281 282 283 285 285 285 285 286 287 289 291 293 295 297 298 299 300
215 213 214 215 215 216 218 219 221 223 225 227 229 230 232 233 234 234 235 235 236 236 236 236 236 236 236 236 237 238 240 242 243 245 247 249 250 251 251 253 254 255 257 258 259 260 261 261 261 262 263 264 265 267 268 269 270 271 272 272 273 274 276 278 278 277 278 279 279 280 281 283 284 284 284 285 285 287 289 291 293 295 297 298 299 299
217 215 215 217 217 216 218 219 221 223 224 226 228 230 232 233 234 235 235 235 236 236 237 236 237 236 236 236 237 238 240 241 243 245 246 248 249 250 251 252 254 255 257 258 260 260 261 261 262 262 263 264 265 266 267 268 269 269 270 271 272 274 276 276 276 276 276 277 279 280 281 282 283 283 284 285 286 288 290 292 294 295 297 297 298 298
219 217 216 217 218 218 218 219 221 222 223 225 227 229 231 233 234 235 236 237 237 237 237 237 237 236 237 237 238 238 240 241 243 245 246 248 249 250 251 252 253 255 256 258 259 260 261 261 262 262 263 264 265 265 266 267 267 268 269 271 272 273 274 274 274 275 276 277 278 280 281 282 282 283 285 286 287 289 291 292 294 295 296 297 297 298
221 219 218 218 219 219 219 219 221 222 224 225 227 228 231 232 234 235 236 237 238 238 238 239 238 238 238 238 239 240 240 241 243 245 247 248 249 250 252 253 254 255 257 258 259 260 261 261 262 262 263 264 264 265 266 267 268 269 270 271 272 272 273 273 274 275 276 277 279 280 281 282 283 285 286 287 289 290 292 293 294 295 296 296 297 297
223 221 219 219 219 220 220 220 221 222 224 225 227 228 230 232 233 235 236 236 237 238 238 239 239 238 238 238 239 240 240 241 242 244 246 248 249 250 252 253 254 255 257 258 259 260 261 261 262 262 263 264 265 266 266 267 268 269 270 271 271 272 273 274 275 276 277 278 279 280 282 283 285 286 287 289 290 291 292 293 293 294 295 295 296 296
227 224 221 220 221 221 222 221 222 223 224 226 227 228 230 231 233 234 235 236 237 238 238 239 238 237 237 237 238 239 240 240 241 243 244 246 248 249 251 252 254 256 257 258 259 260 261 262 263 263 264 265 265 266 267 268 268 269 270 271 272 273 273 274 275 276 278 279 280 282 283 285 286 287 288 289 290 291 291 292 292 293 294 294 295 295
228 225 222 221 221 222 223 223 224 224 225 225 226 227 229 230 232 233 235 236 237 238 239 240 239 237 237 238 238 240 241 242 242 243 244 245 247 249 250 252 254 256 258 259 260 261 262 263 263 264 265 266 266 267 267 268 269 270 271 272 273 274 275 276 277 278 280 281 282 283 285 286 287 288 288 289 289 290 290 291 291 292 293 293 294 294
229 225 223 223 222 223 224 225 225 225 225 225 225 227 228 229 231 233 235 236 238 239 240 241 241 240 239 240 240 241 243 243 244 244 245 246 247 249 251 253 254 256 257 258 260 260 262 263 264 264 265 266 267 268 268 269 271 272 272 273 274 275 276 278 279 280 281 282 283 284 285 285 286 286 287 288 288 289 289 290 290 291 292 292 292 292
231 228 226 226 225 225 226 227 228 228 227 226 227 228 229 230 232 234 235 237 239 240 241 242 242 241 242 242 242 242 243 244 245 245 246 247 248 250 252 253 254 255 256 256 258 259 260 261 263 264 265 266 267 268 269 270 271 272 273 274 275 276 277 278 279 280 281 282 282 283 284 284 285 285 286 287 287 288 288 289 289 290 290 291 291 291
234 231 230 229 228 227 227 228 230 231 230 229 228 229 230 231 232 234 235 236 238 239 240 241 242 243 243 244 243 243 244 245 246 246 247 248 248 249 250 251 253 254 254 255 256 257 258 260 261 262 264 265 266 267 268 269 270 271 273 274 275 276 277 277 278 279 280 280 281 282 282 283 284 284 285 285 286 286 287 287 288 288 289 289 290 290
236 234 233 233 231 230 229 229 230 232 233 231 231 231 231 231 232 233 234 236 237 238 239 241 242 243 244 245 245 245 244 245 245 246 247 247 248 249 250 251 252 253 254 255 257 258 259 259 260 261 262 263 265 266 267 268 269 270 271 272 273 274 275 276 277 278 278 279 280 280 281 282 282 283 283 284 284 285 285 286 286 287 287 288 288 288
239 237 236 236 235 233 232 231 231 233 234 234 234 233 233 233 233 234 235 236 237 238 238 240 241 242 244 245 245 245 246 246 246 248 249 249 250 251 252 252 253 254 256 257 258 260 260 261 261 262 263 264 265 266 266 267 268 270 271 271 272 273 274 274 275 276 276 277 278 278 279 280 280 281 281 282 282 283 283 284 285 285 286 286 287 287
240 239 238 238 237 237 236 234 233 234 235 235 235 235 236 235 235 235 235 236 237 237 238 239 240 241 243 244 245 246 248 249 250 250 251 251 252 253 253 254 255 256 257 258 259 260 261 262 262 263 264 265 266 267 267 268 269 270 271 271 272 272 273 273 274 275 275 276 276 277 278 278 279 279 280 281 281 282 283 284 284 285 285 286 287 287
239 238 238 238 238 238 238 237 236 235 235 235 236 238 239 238 237 236 236 237 238 238 238 239 239 240 242 244 246 247 248 249 250 251 252 252 253 254 254 255 256 256 257 258 259 260 261 262 263 264 265 266 266 267 268 269 270 270 271 271 272 272 273 273 274 275 275 276 276 277 277 278 279 279 280 281 282 282 283 284 284 285 285 286 286 286
237 237 238 238 238 238 238 238 237 236 234 234 237 240 241 240 239 238 238 239 239 239 239 239 240 242 243 244 246 247 247 247 249 252 253 254 255 255 256 257 257 258 259 259 260 261 262 263 264 265 265 266 266 267 268 269 269 270 270 271 272 272 273 274 274 275 276 276 277 277 278 278 279 280 281 281 282 283 283 284 284 284 285 285 286 286
239 239 239 240 240 239 239 240 240 239 238 238 238 239 240 241 241 241 240 241 241 241 241 241 242 244 245 246 246 247 248 248 249 251 253 254 255 256 256 257 257 258 259 260 260 261 262 263 264 265 266 266 267 267 268 268 269 269 270 271 272 272 273 273 274 275 275 276 276 277 278 278 279 280 280 281 282 282 283 283 284 284 284 285 285 286
243 244 244 244 243 242 242 243 244 243 242 241 239 239 240 243 244 244 243 243 243 243 243 244 245 246 248 248 249 249 249 249 249 250 251 252 253 253 254 255 256 257 258 259 260 261 262 263 264 265 265 266 266 267 267 268 269 269 270 271 272 272 273 273 274 274 275 275 276 277 277 278 279 279 280 281 281 282 282 283 283 284 284 285 285 286
245 246 246 246 246 245 245 245 245 244 243 243 243 242 243 245 246 246 245 245 245 246 246 246 247 249 250 250 250 250 250 249 249 250 252 252 252 252 253 255 256 258 259 260 261 261 262 262 263 264 264 265 266 266 267 267 268 269 269 270 271 272 272 273 273 274 275 275 276 276 277 278 279 279 280 281 281 282 282 283 283 284 284 285 285 285
244 245 246 246 246 246 246 246 246 245 244 246 248 247 245 246 246 246 245 245 246 248 249 249 249 250 251 251 250 250 250 250 251 252 254 254 253 253 254 255 256 258 259 260 261 261 262 262 263 263 264 265 265 266 266 267 268 268 269 270 271 271 272 273 273 274 274 275 276 276 277 278 279 279 280 280 281 282 282 283 283 283 284 284 285 285
243 244 245 246 246 246 247 247 247 246 245 246 248 248 247 247 247 247 247 246 248 250 251 250 250 250 251 251 250 250 251 252 252 254 255 256 256 256 257 257 257 258 259 259 260 261 262 263 263 264 265 265 266 266 267 268 268 269 269 270 270 271 271 272 273 273 274 274 275 276 277 277 278 278 279 280 280 281 281 282 282 283 283 284 284 285
242 243 245 246 247 247 248 248 247 246 245 245 246 248 249 249 249 249 249 249 251 252 252 250 249 249 250 251 252 252 253 253 254 255 256 257 258 258 259 259 259 259 260 260 260 261 262 263 264 265 265 266 266 267 267 268 268 269 269 269 270 270 271 271 272 272 273 274 274 275 276 276 277 277 278 279 279 280 280 281 281 282 283 283 284 284
242 243 244 245 246 247 248 248 247 246 245 246 246 247 249 251 252 252 253 253 252 252 252 251 252 251 252 252 253 254 255 255 255 256 257 258 258 259 259 260 260 261 261 261 261 262 262 263 264 265 266 266 267 268 268 269 269 269 270 270 270 271 271 271 272 272 273 274 274 275 275 276 276 277 277 278 279 279 280 280 281 282 282 283 283 284
242 243 244 245 246 247 248 248 247 246 246 248 249 249 250 253 255 255 254 252 251 251 252 254 256 256 256 255 255 255 255 256 256 256 257 258 258 259 259 260 261 261 262 262 263 263 263 264 264 265 266 267 267 268 269 270 270 271 271 271 272 272 272 273 273 273 274 274 275 275 275 276 276 277 277 278 278 279 279 280 280 281 282 282 282 283
242 242 242 243 245 247 247 248 248 247 248 251 252 250 249 250 252 252 251 252 253 255 256 256 257 258 259 259 259 258 257 258 258 258 259 259 259 259 260 260 261 262 263 263 264 264 265 265 265 266 266 267 267 268 269 270 271 271 272 273 273 273 274 274 274 275 275 275 275 276 276 276 277 277 277 278 278 279 279 280 280 280 281 281 282 283
241 242 244 245 247 248 249 250 250 250 249 249 250 250 249 249 251 252 254 256 257 258 259 258 259 259 260 261 262 263 263 262 262 262 262 262 262 261 261 262 262 263 263 264 264 265 265 265 266 266 267 267 268 268 269 270 271 271 272 273 273 274 274 275 275 276 276 276 276 277 277 277 277 277 278 278 278 279 279 280 280 280 281 282 282 283
244 245 246 247 247 248 249 249 249 249 248 249 251 253 254 255 255 256 257 258 259 259 260 260 261 262 262 263 264 265 266 266 266 265 265 265 265 265 264 264 264 264 264 265 265 266 266 266 267 267 268 268 269 269 270 270 271 271 272 272 272 273 274 274 274 275 275 276 276 277 277 277 277 278 278 278 279 279 279 280 280 281 281 282 282 283
246 246 247 248 248 248 248 249 250 251 251 252 252 253 255 256 257 258 258 258 259 259 260 261 262 262 263 264 264 265 266 267 268 268 268 267 267 267 267 267 267 267 267 267 267 268 268 269 269 269 269 269 270 270 270 271 271 271 272 272 272 272 273 273 274 274 274 275 275 276 276 276 277 277 278 278 278 279 279 280 280 281 281 282 282 283
248 249 250 250 251 252 252 253 254 253 253 252 251 251 253 254 256 257 258 259 259 260 260 261 261 262 263 264 264 265 266 267 268 269 270 270 271 271 271 270 270 270 270 270 270 270 270 271 271 271 271 271 271 271 271 271 272 272 272 272 272 273 273 273 273 274 274 274 275 275 276 276 277 277 277 278 278 279 279 280 280 281 281 282 282 283
250 251 251 252 253 255 254 253 253 253 253 252 253 253 253 254 255 256 257 258 259 260 260 261 262 262 263 264 265 266 266 267 268 269 270 271 272 273 273 273 273 273 272 272 272 272 272 272 273 273 273 274 273 273 273 273 273 273 273 273 273 274 274 274 274 274 275 275 275 276 276 276 277 277 278 278 278 279 279 280 280 281 282 282 283 284
249 251 252 254 255 255 254 253 254 254 254 254 254 254 254 255 255 256 256 257 258 259 260 261 262 263 263 264 264 265 265 265 266 267 268 269 271 272 273 274 275 275 275 275 275 275 275 275 275 275 275 275 275 275 275 275 276 276 276 276 276 276 276 276 276 276 276 276 276 276 277 277 277 278 278 279 279 280 280 281 282 282 283 284 284 285
250 251 253 254 254 254 253 253 253 252 252 252 253 254 255 256 257 258 258 258 259 259 260 260 260 261 262 262 263 264 264 265 266 267 268 269 270 271 273 274 274 275 275 276 276 277 277 277 277 278 278 278 278 278 279 279 279 279 279 279 279 279 279 279 279 279 279 279 279 279 279 279 279 280 280 280 281 281 282 283 283 284 284 285 285 286
252 253 253 253 254 253 252 251 251 252 252 253 254 255 256 257 258 259 260 260 260 260 260 259 259 259 259 260 262 262 264 265 265 267 269 271 272 273 273 274 274 275 275 276 276 276 277 277 278 278 279 280 280 281 281 281 281 281 282 282 281 281 281 281 281 281 281 281 281 282 282 282 282 283 283 283 283 283 284 284 284 285 285 286 286 287
Height
10737 10742 10748 10754 10756 10758 10760 10763 10766 10769 10774 10778 10783 10788 10794 10800 10807 10812 10814 10818 10824 10830 10834 10835 10836 10837 10842 10848 10851 10853 10856 10859 10862 10864 10864 10865 10866 10868 10869 10870 10870 10870 10872 10874 10873 10871 10871 10871 10872 10872 10872 10872 10872 10872 10873 10873 10873 10873 10873 10873 10872 10871 10869 10868 10868 10867 10867 10866 10865 10864 10863 10862 10861 10859 10858 10856 10854 10851 10849 10847 10846 10844 10843 10842 10840 10838
10731 10740 10743 10744 10746 10750 10754 10757 10758 10759 10762 10768 10776 10783 10788 10795 10801 10805 10808 10813 10819 10826 10829 10829 10831 10834 10838 10844 10847 10851 10853 10855 10856 10857 10858 10859 10860 10863 10864 10865 10865 10866 10868 10869 10868 10867 10867 10867 10868 10868 10867 10867 10868 10869 10869 10868 10869 10869 10869 10868 10868 10867 10866 10865 10864 10863 10863 10862 10861 10859 10859 10858 10856 10855 10854 10852 10850 10848 10846 10843 10841 10840 10838 10837 10836 10834
10729 10734 10731 10731 10736 10742 10747 10751 10751 10752 10756 10763 10772 10779 10784 10790 10795 10799 10804 10809 10814 10821 10823 10825 10828 10829 10832 10839 10844 10848 10850 10849 10850 10851 10853 10854 10856 10857 10858 10859 10860 10862 10863 10863 10863 10863 10862 10863 10864 10864 10863 10863 10864 10865 10864 10864 10864 10864 10864 10864 10864 10863 10862 10862 10861 10860 10859 10858 10856 10855 10854 10853 10852 10851 10850 10848 10847 10844 10842 10840 10838 10836 10834 10832 10831 10829
10720 10717 10714 10719 10727 10734 10741 10746 10746 10747 10753 10761 10769 10775 10781 10785 10789 10794 10799 10802 10808 10814 10817 10820 10822 10823 10827 10835 10841 10844 10845 10843 10844 10847 10848 10850 10852 10852 10852 10854 10856 10857 10858 10858 10858 10858 10858 10859 10859 10859 10859 10859 10859 10859 10859 10860 10861 10860 10860 10860 10859 10858 10857 10857 10857 10857 10856 10854 10853 10851 10850 10849 10847 10847 10845 10844 10843 10840 10838 10836 10834 10832 10830 10828 10826 10824
10703 10700 10706 10716 10724 10730 10736 10740 10742 10743 10749 10757 10764 10771 10776 10778 10783 10788 10790 10794 10801 10806 10810 10812 10816 10818 10822 10830 10836 10838 10839 10838 10840 10843 10844 10846 10847 10846 10847 10850 10850 10851 10852 10853 10853 10854 10854 10854 10854 10854 10854 10854 10854 10854 10854 10856 10857 10856 10855 10855 10855 10854 10853 10852 10852 10852 10851 10850 10849 10847 10846 10844 10842 10841 10840 10839 10837 10835 10833 10831 10829 10827 10825 10823 10821 10819
10690 10692 10705 10713 10719 10726 10731 10735 10737 10739 10743 10749 10758 10765 10769 10772 10775 10778 10782 10787 10793 10799 10803 10805 10811 10816 10816 10823 10829 10830 10834 10835 10834 10839 10841 10841 10841 10841 10843 10843 10842 10845 10847 10847 10848 10848 10849 10848 10848 10848 10848 10849 10849 10849 10850 10851 10851 10851 10851 10851 10851 10850 10849 10847 10847 10846 10846 10845 10844 10843 10841 10840 10837 10835 10834 10833 10831 10829 10827 10826 10824 10822 10819 10817 10815 10813
10682 10688 10700 10707 10713 10719 10724 10730 10732 10734 10737 10743 10752 10758 10761 10764 10766 10770 10774 10778 10784 10792 10796 10798 10806 10811 10809 10815 10821 10824 10830 10831 10829 10835 10837 10835 10835 10836 10837 10835 10836 10839 10840 10841 10841 10842 10843 10843 10842 10842 10842 10843 10844 10845 10846 10846 10846 10846 10846 10846 10846 10845 10844 10843 10842 10841 10840 10839 10838 10837 10836 10834 10832 10830 10829 10827 10825 10823 10822 10820 10818 10816 10814 10811 10809 10807
10678 10683 10694 10701 10707 10713 10719 10724 10724 10726 10732 10738 10744 10746 10751 10756 10758 10761 10765 10769 10776 10783 10787 10792 10801 10806 10806 10809 10814 10819 10825 10826 10826 10829 10830 10829 10829 10830 10830 10829 10830 10833 10834 10835 10836 10836 10837 10837 10838 10837 10837 10838 10838 10840 10841 10840 10841 10841 10841 10841 10840 10840 10839 10838 10838 10836 10835 10833 10832 10831 10830 10828 10827 10825 10824 10822 10820 10818 10816 10814 10812 10810 10808 10806 10803 10801
10668 10674 10683 10690 10698 10705 10711 10713 10713 10718 10725 10731 10734 10736 10742 10746 10749 10753 10756 10761 10768 10774 10781 10788 10795 10801 10804 10803 10807 10813 10818 10821 10822 10822 10823 10823 10822 10823 10824 10824 10825 10826 10829 10830 10830 10831 10831 10832 10833 10832 10833 10833 10832 10833 10834 10834 10836 10836 10836 10836 10835 10834 10833 10833 10832 10831 10829 10828 10826 10825 10823 10821 10820 10819 10818 10816 10814 10812 10810 10808 10806 10804 10802 10800 10798 10795
10658 10666 10674 10683 10692 10699 10701 10702 10706 10712 10717 10722 10724 10728 10733 10737 10742 10746 10749 10754 10760 10767 10777 10783 10787 10795 10801 10797 10799 10808 10812 10815 10816 10815 10815 10816 10816 10817 10817 10818 10819 10820 10822 10824 10824 10825 10826 10827 10827 10827 10827 10827 10827 10828 10828 10829 10829 10830 10830 10830 10829 10828 10827 10827 10826 10826 10824 10822 10821 10819 10817 10815 10814 10812 10811 10809 10807 10806 10804 10802 10800 10797 10795 10793 10792 10789
10654 10662 10669 10680 10689 10692 10693 10696 10702 10706 10710 10714 10717 10721 10724 10729 10734 10737 10742 10746 10750 10762 10773 10776 10779 10787 10795 10794 10793 10801 10806 10807 10809 10809 10809 10809 10809 10809 10810 10811 10813 10814 10816 10817 10819 10820 10820 10821 10821 10821 10821 10821 10822 10823 10823 10823 10823 10823 10823 10823 10822 10821 10820 10820 10819 10819 10818 10817 10815 10812 10810 10809 10807 10805 10803 10801 10800 10798 10797 10795 10793 10791 10789 10787 10785 10783
10650 10656 10665 10676 10682 10684 10687 10691 10694 10698 10703 10707 10710 10714 10717 10722 10726 10729 10734 10737 10743 10759 10766 10767 10771 10778 10791 10794 10788 10792 10799 10799 10801 10802 10802 10801 10801 10802 10803 10805 10806 10808 10810 10811 10812 10813 10813 10814 10815 10815 10815 10815 10816 10817 10818 10818 10818 10817 10817 10816 10815 10814 10813 10812 10812 10812 10811 10810 10808 10806 10804 10802 10801 10799 10796 10794 10793 10791 10789 10788 10786 10783 10782 10780 10779 10777
10644 10650 10658 10666 10671 10676 10679 10683 10686 10690 10695 10699 10703 10707 10710 10714 10719 10722 10727 10731 10740 10752 10755 10756 10762 10771 10787 10791 10782 10783 10790 10790 10791 10794 10795 10795 10795 10794 10795 10797 10799 10801 10803 10804 10805 10806 10806 10808 10809 10809 10809 10809 10809 10810 10811 10812 10812 10811 10810 10810 10809 10808 10807 10806 10805 10804 10803 10802 10800 10799 10797 10796 10794 10792 10790 10788 10786 10784 10783 10781 10779 10777 10775 10773 10771 10769
10634 10642 10651 10657 10663 10668 10672 10676 10680 10683 10687 10690 10694 10697 10701 10706 10712 10718 10723 10727 10735 10744 10745 10746 10752 10764 10780 10785 10779 10776 10778 10780 10783 10787 10788 10788 10787 10787 10787 10789 10791 10793 10795 10797 10799 10800 10800 10801 10803 10803 10803 10803 10803 10803 10804 10805 10805 10804 10803 10802 10802 10801 10801 10799 10798 10797 10796 10795 10793 10792 10791 10789 10787 10786 10784 10782 10780 10778 10776 10774 10772 10770 10768 10766 10764 10762
10624 10634 10642 10647 10653 10658 10662 10667 10670 10672 10674 10678 10682 10686 10691 10699 10705 10711 10715 10721 10728 10733 10733 10734 10742 10758 10772 10776 10774 10769 10767 10771 10776 10779 10779 10779 10779 10780 10781 10782 10783 10784 10787 10790 10792 10794 10795 10795 10796 10797 10797 10797 10796 10796 10797 10798 10798 10797 10796 10795 10794 10793 10793 10792 10791 10789 10788 10787 10786 10785 10784 10782 10780 10778 10777 10775 10772 10770 10768 10766 10764 10762 10760 10758 10756 10754
10620 10628 10632 10636 10641 10645 10649 10654 10657 10660 10664 10669 10674 10679 10688 10695 10697 10701 10706 10712 10718 10719 10722 10728 10739 10755 10763 10764 10765 10764 10763 10765 10767 10770 10771 10770 10771 10773 10774 10774 10775 10776 10779 10783 10786 10788 10789 10789 10790 10790 10790 10790 10789 10789 10789 10789 10790 10790 10790 10789 10788 10786 10784 10783 10782 10781 10780 10779 10777 10777 10776 10774 10772 10770 10769 10766 10764 10762 10760 10758 10756 10753 10752 10749 10747 10745
10614 10619 10623 10627 10633 10637 10642 10647 10650 10654 10659 10664 10669 10676 10684 10685 10685 10691 10699 10705 10708 10711 10719 10728 10739 10749 10752 10754 10758 10760 10760 10758 10758 10760 10761 10763 10764 10764 10764 10765 10767 10770 10773 10775 10778 10780 10781 10783 10783 10783 10783 10783 10783 10782 10781 10781 10781 10782 10782 10782 10781 10779 10777 10775 10774 10773 10772 10770 10769 10768 10767 10765 10763 10762 10760 10757 10755 10753 10751 10749 10747 10744 10742 10740 10738 10736
10603 10607 10610 10615 10622 10628 10633 10639 10643 10648 10653 10659 10665 10670 10672 10672 10677 10687 10692 10696 10701 10707 10717 10726 10734 10741 10743 10747 10752 10755 10754 10751 10750 10751 10752 10754 10756 10756 10756 10758 10761 10764 10766 10768 10770 10771 10773 10774 10775 10776 10776 10776 10776 10775 10774 10774 10774 10774 10773 10773 10772 10770 10769 10767 10766 10765 10763 10761 10760 10759 10757 10756 10754 10752 10750 10748 10746 10744 10742 10740 10738 10735 10733 10730 10728 10726
10592 10596 10600 10605 10612 10618 10623 10629 10636 10642 10647 10653 10656 10658 10659 10665 10674 10681 10684 10690 10696 10702 10711 10718 10724 10730 10736 10742 10746 10747 10746 10744 10742 10743 10743 10744 10746 10748 10750 10751 10752 10754 10757 10760 10761 10762 10764 10765 10766 10767 10767 10768 10768 10767 10767 10767 10767 10767 10765 10764 10763 10762 10761 10759 10758 10757 10755 10753 10752 10750 10749 10747 10745 10743 10741 10739 10737 10735 10733 10731 10729 10726 10724 10721 10719 10717
10585 10588 10593 10598 10603 10609 10615 10623 10632 10638 10641 10644 10646 10649 10653 10660 10667 10671 10675 10683 10687 10692 10701 10708 10713 10722 10731 10735 10736 10738 10738 10737 10735 10735 10736 10736 10737 10740 10742 10743 10743 10745 10748 10751 10752 10753 10754 10754 10756 10757 10758 10758 10759 10759 10759 10760 10759 10758 10757 10756 10755 10753 10752 10751 10750 10749 10747 10745 10744 10742 10741 10739 10737 10735 10733 10731 10728 10726 10724 10722 10720 10718 10715 10713 10710 10707
10576 10581 10587 10590 10594 10603 10612 10620 10626 10628 10630 10634 10638 10643 10648 10652 10657 10661 10665 10673 10678 10684 10692 10699 10705 10717 10725 10726 10727 10730 10732 10731 10729 10728 10728 10728 10728 10729 10732 10733 10735 10737 10739 10741 10742 10743 10744 10744 10746 10747 10748 10749 10750 10751 10751 10751 10750 10749 10748 10747 10746 10744 10743 10742 10741 10740 10739 10737 10736 10734 10733 10731 10729 10727 10724 10722 10720 10717 10715 10713 10711 10708 10706 10703 10701 10698
10569 10573 10578 10582 10587 10597 10605 10609 10610 10613 10620 10626 10631 10637 10642 10644 10648 10652 10658 10666 10671 10675 10682 10688 10698 10713 10720 10718 10720 10723 10723 10723 10721 10720 10719 10719 10720 10721 10722 10724 10726 10728 10730 10730 10731 10732 10733 10735 10736 10737 10739 10740 10741 10741 10741 10741 10741 10740 10739 10738 10737 10736 10734 10733 10732 10731 10730 10729 10728 10726 10724 10723 10720 10718 10715 10713 10711 10708 10706 10703 10701 10698 10696 10693 10691 10688
10560 10563 10567 10573 10579 10586 10590 10594 10599 10607 10615 10620 10626 10633 10635 10637 10642 10647 10653 10659 10661 10666 10676 10681 10694 10712 10714 10710 10713 10715 10714 10714 10713 10713 10712 10711 10712 10713 10713 10714 10715 10717 10719 10719 10720 10722 10723 10725 10727 10728 10730 10730 10731 10731 10731 10731 10730 10729 10728 10727 10727 10726 10725 10725 10724 10723 10722 10721 10719 10718 10716 10714 10711 10709 10706 10704 10701 10699 10696 10694 10691 10688 10686 10683 10681 10678
10551 10554 10560 10566 10571 10575 10579 10585 10593 10601 10608 10616 10624 10628 10628 10632 10636 10637 10643 10647 10649 10659 10669 10672 10689 10708 10704 10699 10704 10704 10702 10705 10705 10705 10704 10702 10703 10703 10703 10705 10705 10707 10709 10709 10711 10712 10714 10716 10717 10719 10720 10720 10720 10720 10720 10720 10719 10718 10718 10717 10717 10717 10716 10716 10715 10714 10713 10712 10710 10708 10706 10704 10701 10699 10697 10694 10692 10689 10686 10684 10681 10679 10676 10673 10671 10668
10539 10544 10551 10558 10561 10566 10573 10582 10591 10600 10606 10612 10617 10619 10620 10623 10624 10627 10632 10635 10640 10653 10659 10664 10685 10699 10688 10684 10691 10690 10689 10693 10694 10694 10694 10693 10694 10694 10694 10695 10696 10698 10700 10701 10702 10703 10704 10706 10707 10708 10709 10709 10709 10709 10709 10708 10708 10707 10707 10707 10707 10707 10707 10707 10706 10705 10704 10702 10701 10698 10696 10694 10692 10690 10687 10684 10682 10679 10677 10674 10671 10669 10666 10664 10661 10658
10523 10530 10539 10545 10551 10560 10570 10580 10588 10591 10592 10596 10601 10604 10606 10607 10610 10616 10619 10624 10637 10647 10650 10660 10679 10683 10672 10673 10682 10682 10681 10682 10682 10683 10684 10685 10684 10684 10684 10687 10689 10691 10692 10693 10694 10694 10695 10696 10697 10698 10698 10698 10698 10698 10698 10698 10697 10698 10698 10698 10698 10698 10697 10697 10696 10695 10694 10693 10691 10689 10687 10685 10682 10680 10677 10674 10672 10669 10667 10664 10661 10659 10657 10654 10651 10648
10513 10522 10532 10540 10549 10558 10564 10569 10571 10569 10572 10582 10588 10589 10592 10595 10600 10605 10612 10626 10638 10640 10645 10660 10668 10665 10664 10669 10674 10675 10672 10670 10671 10673 10675 10676 10675 10675 10678 10681 10682 10683 10684 10684 10683 10683 10685 10687 10688 10688 10688 10688 10688 10687 10688 10688 10689 10689 10690 10689 10688 10688 10688 10688 10687 10686 10684 10683 10681 10679 10677 10675 10672 10670 10667 10664 10662 10659 10656 10654 10651 10649 10646 10643 10640 10636
10509 10520 10532 10540 10546 10552 10556 10559 10560 10561 10570 10580 10581 10581 10585 10590 10595 10605 10619 10632 10632 10631 10644 10653 10649 10651 10657 10657 10660 10664 10661 10658 10660 10662 10665 10667 10669 10671 10672 10672 10672 10672 10672 10672 10672 10673 10675 10678 10679 10679 10679 10679 10679 10679 10680 10680 10680 10681 10680 10680 10679 10679 10679 10678 10677 10676 10674 10673 10671 10669 10667 10664 10662 10659 10656 10654 10651 10648 10646 10644 10641 10638 10635 10632 10629 10625
10508 10521 10530 10533 10537 10542 10546 10550 10553 10556 10563 10570 10571 10574 10579 10585 10596 10609 10620 10622 10618 10625 10638 10637 10633 10644 10648 10642 10646 10652 10649 10648 10649 10651 10654 10657 10660 10661 10661 10660 10659 10658 10658 10658 10660 10662 10666 10669 10670 10670 10669 10670 10670 10670 10671 10671 10671 10672 10671 10671 10670 10669 10668 10667 10666 10666 10664 10663 10661 10658 10656 10653 10651 10648 10645 10643 10641 10638 10635 10633 10630 10627 10623 10620 10617 10613
10504 10515 10521 10523 10527 10532 10536 10542 10546 10547 10552 10558 10562 10566 10572 10583 10596 10604 10607 10607 10608 10619 10629 10625 10627 10637 10635 10630 10635 10637 10635 10636 10637 10637 10642 10645 10647 10649 10649 10649 10647 10645 10645 10648 10650 10653 10656 10659 10661 10660 10659 10660 10660 10660 10661 10661 10661 10661 10661 10660 10660 10658 10657 10656 10656 10655 10654 10652 10649 10647 10644 10642 10639 10637 10634 10632 10629 10627 10624 10621 10618 10615 10612 10608 10605 10602
10499 10507 10512 10514 10516 10521 10529 10535 10538 10539 10543 10547 10551 10560 10572 10582 10590 10595 10597 10597 10601 10613 10618 10613 10619 10629 10625 10620 10619 10617 10618 10624 10627 10630 10633 10636 10638 10640 10640 10639 10637 10638 10640 10642 10644 10644 10645 10647 10649 10649 10649 10650 10650 10651 10651 10651 10651 10651 10650 10649 10648 10647 10647 10646 10645 10644 10642 10640 10637 10635 10632 10629 10626 10624 10622 10619 10617 10614 10612 10609 10606 10602 10599 10596 10593 10590
10488 10495 10500 10502 10506 10516 10523 10526 10529 10532 10532 10534 10544 10560 10570 10576 10580 10584 10586 10587 10593 10602 10601 10601 10613 10621 10612 10603 10603 10606 10611 10616 10621 10625 10626 10628 10629 10630 10629 10629 10629 10632 10635 10636 10636 10634 10633 10635 10636 10638 10639 10639 10640 10640 10640 10640 10640 10640 10639 10638 10637 10637 10636 10635 10633 10631 10630 10627 10625 10622 10619 10616 10614 10611 10609 10607 10604 10602 10599 10596 10593 10590 10587 10583 10580 10577
10474 10482 10489 10493 10501 10510 10512 10513 10517 10516 10514 10526 10548 10561 10562 10564 10567 10569 10572 10577 10581 10584 10586 10595 10607 10607 10598 10595 10598 10599 10602 10606 10609 10611 10613 10615 10616 10616 10618 10619 10619 10622 10624 10625 10626 10623 10622 10623 10624 10626 10628 10628 10629 10628 10628 10629 10629 10628 10627 10625 10625 10625 10624 10622 10621 10619 10617 10615 10612 10609 10606 10603 10601 10598 10596 10594 10591 10589 10586 10584 10581 10577 10574 10571 10567 10563
10463 10473 10481 10486 10492 10498 10499 10499 10498 10496 10509 10537 10556 10554 10549 10550 10552 10554 10562 10566 10566 10569 10579 10591 10597 10592 10588 10590 10588 10583 10586 10592 10597 10599 10600 10604 10605 10606 10609 10609 10610 10612 10613 10613 10615 10613 10612 10613 10613 10615 10617 10616 10616 10616 10616 10617 10617 10615 10614 10613 10613 10613 10611 10610 10608 10606 10604 10602 10599 10596 10593 10590 10588 10586 10584 10581 10579 10576 10573 10570 10568 10564 10561 10558 10553 10549
10462 10469 10475 10479 10482 10488 10490 10488 10486 10499 10525 10545 10545 10538 10535 10535 10537 10545 10553 10555 10556 10563 10572 10580 10584 10579 10573 10575 10574 10572 10575 10582 10589 10593 10594 10595 10595 10594 10595 10597 10598 10600 10600 10601 10603 10604 10604 10603 10603 10604 10605 10605 10604 10605 10605 10605 10604 10602 10601 10601 10601 10601 10599 10598 10595 10593 10591 10588 10585 10583 10580 10578 10576 10573 10571 10569 10566 10563 10560 10556 10554 10550 10547 10543 10539 10536
10463 10466 10470 10472 10475 10480 10484 10483 10489 10508 10525 10528 10526 10529 10530 10528 10531 10538 10542 10544 10548 10553 10558 10565 10569 10564 10558 10562 10564 10563 10567 10573 10579 10585 10587 10583 10580 10578 10581 10584 10585 10586 10588 10590 10592 10595 10595 10594 10594 10594 10594 10593 10593 10593 10593 10592 10591 10591 10590 10588 10588 10587 10586 10584 10582 10580 10577 10574 10572 10569 10567 10565 10563 10560 10558 10555 10552 10549 10546 10542 10539 10536 10532 10528 10525 10521
10456 10458 10461 10463 10467 10473 10477 10480 10487 10499 10509 10515 10521 10527 10527 10525 10525 10522 10524 10534 10540 10540 10544 10551 10555 10550 10546 10550 10552 10552 10555 10561 10570 10579 10576 10566 10562 10565 10572 10576 10576 10576 10579 10582 10583 10585 10585 10584 10583 10582 10581 10581 10580 10580 10580 10579 10579 10579 10578 10577 10576 10574 10572 10571 10569 10566 10563 10560 10557 10555 10553 10551 10549 10547 10544 10541 10538 10534 10531 10528 10524 10521 10517 10513 10510 10506
10446 10449 10451 10453 10457 10462 10467 10473 10480 10490 10506 10517 10518 10516 10514 10513 10510 10504 10508 10526 10534 10530 10530 10537 10539 10535 10532 10535 10539 10540 10541 10549 10566 10574 10559 10543 10547 10558 10565 10569 10569 10569 10571 10572 10572 10572 10572 10571 10571 10569 10569 10569 10568 10567 10566 10565 10566 10567 10567 10566 10563 10561 10559 10557 10555 10552 10548 10545 10543 10541 10539 10537 10535 10533 10530 10527 10524 10520 10517 10514 10510 10506 10503 10499 10496 10492
10436 10440 10442 10443 10448 10455 10460 10467 10474 10487 10504 10510 10504 10500 10498 10498 10497 10492 10498 10520 10531 10521 10515 10519 10521 10519 10517 10520 10526 10529 10532 10545 10561 10560 10540 10531 10541 10552 10555 10557 10558 10558 10560 10561 10560 10560 10559 10559 10558 10557 10557 10556 10555 10554 10553 10552 10553 10553 10553 10552 10549 10547 10546 10543 10540 10536 10533 10532 10530 10528 10526 10524 10521 10519 10517 10513 10510 10507 10503 10500 10496 10492 10489 10486 10482 10479
10429 10432 10433 10436 10444 10450 10454 10459 10467 10482 10495 10496 10492 10490 10487 10486 10485 10482 10495 10519 10523 10505 10496 10498 10500 10504 10508 10511 10517 10522 10528 10538 10546 10541 10530 10528 10536 10538 10539 10541 10542 10543 10546 10547 10547 10547 10546 10546 10546 10545 10545 10544 10542 10541 10540 10539 10539 10539 10538 10536 10535 10533 10531 10528 10524 10522 10520 10519 10517 10514 10512 10510 10508 10505 10503 10500 10497 10494 10490 10487 10483 10479 10476 10472 10469 10466
10420 10422 10424 10430 10437 10440 10443 10450 10460 10474 10483 10484 10483 10483 10478 10475 10476 10483 10498 10507 10495 10482 10483 10485 10486 10494 10503 10506 10510 10516 10518 10522 10527 10527 10522 10521 10523 10524 10524 10525 10526 10528 10530 10531 10532 10534 10534 10534 10534 10533 10532 10531 10529 10528 10526 10525 10525 10524 10523 10521 10520 10518 10516 10513 10510 10508 10507 10505 10503 10501 10499 10496 10494 10492 10489 10487 10484 10480 10477 10474 10470 10466 10462 10459 10456 10452
10413 10415 10419 10425 10429 10432 10438 10442 10450 10465 10477 10477 10475 10475 10473 10472 10475 10480 10482 10474 10465 10471 10482 10482 10480 10486 10492 10495 10499 10504 10505 10506 10510 10511 10510 10509 10511 10511 10511 10511 10512 10513 10515 10517 10518 10520 10521 10521 10521 10521 10520 10519 10517 10515 10513 10511 10511 10510 10508 10507 10506 10503 10500 10498 10497 10495 10493 10491 10489 10487 10485 10483 10481 10478 10475 10473 10470 10467 10464 10460 10456 10453 10449 10445 10441 10437
10405 10405 10409 10417 10422 10425 10428 10431 10443 10464 10475 10469 10463 10462 10463 10464 10464 10461 10457 10455 10461 10470 10476 10476 10475 10474 10478 10482 10484 10487 10491 10493 10494 10497 10498 10498 10500 10500 10501 10501 10500 10501 10502 10504 10505 10506 10507 10507 10507 10507 10506 10505 10503 10502 10500 10499 10498 10496 10494 10493 10491 10488 10485 10484 10482 10481 10479 10477 10475 10473 10471 10469 10466 10464 10461 10459 10456 10452 10449 10446 10442 10438 10434 10430 10426 10423
10393 10399 10408 10417 10419 10417 10419 10429 10445 10458 10460 10453 10448 10447 10449 10452 10452 10449 10451 10456 10461 10462 10463 10465 10463 10462 10467 10472 10472 10473 10477 10479 10481 10483 10484 10484 10487 10489 10489 10489 10489 10489 10490 10490 10491 10491 10492 10492 10492 10491 10491 10490 10490 10489 10487 10487 10485 10483 10481 10479 10476 10473 10472 10470 10468 10466 10464 10461 10459 10457 10456 10454 10451 10449 10446 10444 10441 10438 10435 10431 10427 10423 10419 10416 10413 10409
10394 10402 10405 10407 10406 10405 10412 10425 10436 10440 10441 10443 10444 10442 10440 10442 10443 10444 10446 10448 10449 10451 10453 10454 10453 10452 10457 10461 10463 10464 10463 10463 10466 10468 10469 10470 10472 10474 10475 10475 10475 10476 10477 10477 10477 10477 10477 10477 10477 10477 10478 10477 10476 10475 10474 10473 10472 10470 10468 10465 10463 10461 10459 10456 10454 10452 10449 10447 10445 10443 10441 10439 10436 10434 10432 10429 10427 10424 10420 10417 10413 10409 10405 10403 10399 10396
10390 10393 10390 10391 10393 10397 10407 10420 10427 10430 10434 10436 10436 10434 10431 10429 10430 10432 10434 10436 10438 10441 10443 10444 10444 10444 10445 10448 10453 10454 10453 10452 10452 10453 10454 10456 10457 10459 10461 10462 10461 10462 10463 10463 10463 10463 10463 10464 10463 10464 10464 10463 10462 10461 10459 10458 10458 10456 10454 10451 10449 10447 10445 10443 10441 10439 10436 10434 10432 10429 10427 10425 10422 10420 10418 10415 10413 10410 10406 10403 10399 10396 10392 10389 10386 10383
10381 10383 10381 10383 10386 10392 10406 10419 10419 10418 10421 10421 10420 10422 10421 10419 10420 10422 10423 10425 10428 10430 10433 10435 10435 10434 10436 10438 10441 10443 10444 10443 10442 10441 10441 10442 10443 10445 10447 10448 10449 10450 10450 10449 10450 10450 10450 10450 10449 10449 10449 10448 10448 10447 10446 10445 10444 10442 10440 10438 10436 10434 10432 10430 10428 10426 10423 10421 10418 10416 10414 10411 10409 10406 10404 10402 10399 10396 10393 10389 10386 10383 10379 10376 10373 10369
10375 10373 10371 10375 10380 10388 10401 10409 10405 10402 10406 10407 10409 10412 10411 10409 10411 10413 10413 10415 10416 10418 10422 10424 10424 10425 10427 10428 10430 10433 10434 10434 10433 10433 10432 10432 10432 10433 10433 10434 10436 10436 10436 10437 10437 10436 10437 10437 10437 10436 10435 10435 10434 10433 10432 10431 10430 10428 10426 10424 10422 10421 10419 10417 10415 10412 10410 10408 10406 10403 10401 10398 10396 10393 10391 10389 10386 10382 10379 10376 10372 10369 10366 10363 10359 10356
10365 10363 10365 10371 10374 10380 10390 10396 10393 10392 10394 10395 10397 10398 10397 10396 10398 10400 10403 10405 10407 10408 10411 10413 10414 10416 10417 10418 10420 10422 10423 10423 10424 10424 10424 10424 10424 10423 10422 10423 10423 10422 10423 10424 10423 10424 10424 10424 10423 10423 10423 10421 10420 10419 10418 10417 10416 10414 10413 10410 10409 10407 10405 10403 10401 10399 10396 10395 10392 10389 10387 10384 10382 10380 10378 10375 10372 10368 10365 10362 10359 10356 10353 10349 10346 10342
10355 10358 10363 10363 10362 10370 10381 10384 10380 10378 10379 10381 10383 10383 10382 10384 10386 10389 10392 10395 10396 10398 10400 10402 10403 10405 10406 10408 10410 10410 10412 10413 10414 10414 10414 10414 10414 10414 10414 10414 10414 10413 10413 10412 10411 10412 10411 10410 10410 10410 10408 10407 10406 10405 10404 10403 10402 10400 10398 10396 10394 10392 10390 10388 10386 10384 10382 10379 10377 10375 10373 10370 10368 10366 10363 10361 10358 10355 10352 10349 10345 10343 10340 10336 10333 10329
10347 10351 10353 10350 10351 10361 10369 10367 10363 10364 10368 10370 10371 10371 10372 10374 10376 10377 10380 10383 10384 10386 10388 10390 10392 10395 10396 10398 10400 10401 10402 10403 10404 10405 10405 10403 10403 10404 10405 10404 10405 10405 10404 10403 10401 10400 10399 10398 10398 10397 10396 10395 10394 10392 10391 10390 10388 10386 10384 10382 10380 10378 10375 10373 10371 10369 10367 10364 10362 10360 10358 10356 10354 10352 10349 10347 10344 10341 10338 10335 10332 10329 10326 10323 10320 10316